TimeCST,TemperatureF,Dew PointF,Humidity,Sea Level PressureIn,VisibilityMPH,Wind Direction,Wind SpeedMPH,Gust SpeedMPH,PrecipitationIn,Events,Conditions,WindDirDegrees,DateUTC
12:15 AM,22.1,19.4,89,30.12,10.0,North,10.4,-,N/A,,Overcast,360,2013-03-06 06:15:00
12:35 AM,22.1,19.4,89,30.12,10.0,North,9.2,-,N/A,,Overcast,350,2013-03-06 06:35:00
12:55 AM,22.1,19.6,90,30.12,10.0,NNW,9.2,-,N/A,,Overcast,340,2013-03-06 06:55:00
1:15 AM,21.7,20.1,93,30.14,4.0,North,10.4,-,N/A,,Overcast,350,2013-03-06 07:15:00
1:35 AM,21.6,20.3,95,30.14,3.0,NNW,11.5,-,N/A,,Overcast,340,2013-03-06 07:35:00
1:55 AM,21.2,20.1,96,30.14,4.0,North,10.4,-,N/A,,Overcast,350,2013-03-06 07:55:00
2:15 AM,21.6,20.1,94,30.15,5.0,North,9.2,-,N/A,,Overcast,350,2013-03-06 08:15:00
2:35 AM,21.6,20.1,94,30.14,7.0,North,10.4,-,N/A,,Overcast,360,2013-03-06 08:35:00
2:55 AM,21.7,20.3,94,30.15,10.0,North,9.2,-,N/A,,Overcast,360,2013-03-06 08:55:00
3:15 AM,21.7,20.1,93,30.15,10.0,North,9.2,-,N/A,,Overcast,10,2013-03-06 09:15:00
3:35 AM,21.7,19.9,93,30.15,10.0,NNE,10.4,-,N/A,,Overcast,20,2013-03-06 09:35:00
3:55 AM,21.7,19.8,92,30.15,10.0,NNE,10.4,-,N/A,,Overcast,20,2013-03-06 09:55:00
4:15 AM,21.7,19.6,91,30.15,10.0,North,8.1,-,N/A,,Overcast,10,2013-03-06 10:15:00
4:35 AM,21.2,19.4,93,30.15,10.0,NNW,5.8,-,N/A,,Overcast,330,2013-03-06 10:35:00
4:55 AM,21.7,19.9,93,30.16,10.0,NNW,9.2,-,N/A,,Overcast,340,2013-03-06 10:55:00
5:15 AM,21.9,19.9,92,30.18,10.0,NNW,10.4,-,N/A,,Overcast,330,2013-03-06 11:15:00
5:35 AM,22.1,20.1,92,30.18,10.0,NNW,8.1,-,N/A,,Overcast,340,2013-03-06 11:35:00
5:55 AM,22.1,20.1,92,30.19,10.0,NNW,8.1,-,N/A,,Overcast,340,2013-03-06 11:55:00
6:15 AM,22.1,20.3,93,30.19,10.0,North,10.4,-,N/A,,Overcast,350,2013-03-06 12:15:00
6:35 AM,22.5,20.3,91,30.20,10.0,NNW,9.2,-,N/A,,Overcast,340,2013-03-06 12:35:00
6:55 AM,22.5,20.5,92,30.20,7.0,North,9.2,-,N/A,,Overcast,350,2013-03-06 12:55:00
7:15 AM,22.5,20.8,93,30.19,7.0,North,9.2,-,N/A,,Overcast,350,2013-03-06 13:15:00
7:35 AM,23.0,20.8,91,30.19,10.0,North,9.2,-,N/A,,Overcast,360,2013-03-06 13:35:00
7:55 AM,23.0,20.8,91,30.20,10.0,North,9.2,-,N/A,,Overcast,350,2013-03-06 13:55:00
8:15 AM,23.4,21.0,91,30.21,10.0,North,8.1,-,N/A,,Overcast,350,2013-03-06 14:15:00
8:35 AM,23.5,20.8,89,30.21,10.0,North,8.1,-,N/A,,Overcast,350,2013-03-06 14:35:00
8:55 AM,23.7,20.8,89,30.22,10.0,NNW,10.4,-,N/A,,Overcast,340,2013-03-06 14:55:00
9:15 AM,23.7,20.3,87,30.22,10.0,North,10.4,-,N/A,Snow,Light Snow,350,2013-03-06 15:15:00
9:35 AM,23.9,20.3,86,30.23,10.0,NNW,10.4,-,N/A,,Overcast,340,2013-03-06 15:35:00
9:55 AM,23.9,20.1,85,30.24,7.0,NNW,9.2,-,N/A,Snow,Light Snow,340,2013-03-06 15:55:00
10:15 AM,24.4,20.3,84,30.24,7.0,NNW,9.2,-,N/A,Snow,Light Snow,340,2013-03-06 16:15:00
10:35 AM,24.8,20.5,84,30.24,5.0,NNW,9.2,-,N/A,Snow,Light Snow,340,2013-03-06 16:35:00
10:55 AM,25.5,21.0,83,30.24,7.0,North,9.2,-,N/A,Snow,Light Snow,350,2013-03-06 16:55:00
11:15 AM,26.2,21.4,82,30.24,7.0,North,8.1,-,N/A,Snow,Light Snow,350,2013-03-06 17:15:00
11:35 AM,26.6,21.0,79,30.24,7.0,NNW,8.1,-,N/A,Snow,Light Snow,340,2013-03-06 17:35:00
11:55 AM,27.3,21.0,77,30.22,7.0,NNW,8.1,-,N/A,Snow,Light Snow,330,2013-03-06 17:55:00
12:15 PM,28.0,21.0,75,30.22,10.0,NNW,8.1,-,N/A,Snow,Light Snow,340,2013-03-06 18:15:00
12:35 PM,28.4,21.4,75,30.22,10.0,North,8.1,-,N/A,,Overcast,360,2013-03-06 18:35:00
12:55 PM,28.9,20.7,71,30.22,10.0,NNW,6.9,-,N/A,,Overcast,330,2013-03-06 18:55:00
1:15 PM,29.1,20.5,70,30.21,10.0,NNW,5.8,-,N/A,,Overcast,340,2013-03-06 19:15:00
1:35 PM,29.3,20.5,70,30.21,10.0,NW,9.2,-,N/A,,Overcast,310,2013-03-06 19:35:00
1:55 PM,29.3,20.3,69,30.20,10.0,NW,9.2,-,N/A,,Overcast,320,2013-03-06 19:55:00
2:15 PM,29.3,20.1,69,30.21,10.0,NNW,8.1,-,N/A,,Overcast,330,2013-03-06 20:15:00
2:35 PM,29.1,19.0,66,30.21,10.0,NW,6.9,-,N/A,,Overcast,310,2013-03-06 20:35:00
2:55 PM,29.1,19.6,68,30.21,10.0,NNW,5.8,-,N/A,,Overcast,330,2013-03-06 20:55:00
3:15 PM,29.3,18.9,65,30.21,10.0,North,3.5,-,N/A,,Overcast,350,2013-03-06 21:15:00
3:35 PM,29.5,18.5,64,30.20,10.0,Calm,Calm,-,N/A,,Overcast,0,2013-03-06 21:35:00
3:55 PM,29.8,19.0,64,30.20,10.0,North,4.6,-,N/A,,Overcast,10,2013-03-06 21:55:00
4:15 PM,30.6,18.1,60,30.20,10.0,NNW,5.8,-,N/A,,Overcast,340,2013-03-06 22:15:00
4:35 PM,30.0,17.4,59,30.20,10.0,WNW,6.9,-,N/A,,Overcast,300,2013-03-06 22:35:00
4:55 PM,28.4,16.5,61,30.20,10.0,NW,4.6,-,N/A,,Mostly Cloudy,310,2013-03-06 22:55:00
5:15 PM,28.0,16.9,63,30.20,10.0,Calm,Calm,-,N/A,,Mostly Cloudy,0,2013-03-06 23:15:00
5:35 PM,28.6,16.2,60,30.21,10.0,NNW,3.5,-,N/A,,Overcast,340,2013-03-06 23:35:00
5:55 PM,27.5,14.9,59,30.21,10.0,NW,4.6,-,N/A,,Mostly Cloudy,310,2013-03-06 23:55:00
6:15 PM,26.4,14.4,60,30.22,10.0,NW,5.8,-,N/A,,Scattered Clouds,320,2013-03-07 00:15:00
6:35 PM,25.5,14.5,63,30.22,10.0,NNW,6.9,-,N/A,,Clear,330,2013-03-07 00:35:00
6:55 PM,24.8,14.0,64,30.23,10.0,NNW,5.8,-,N/A,,Clear,340,2013-03-07 00:55:00
7:15 PM,21.6,12.9,69,30.24,10.0,North,3.5,-,N/A,,Clear,350,2013-03-07 01:15:00
7:35 PM,21.6,13.1,70,30.24,10.0,North,4.6,-,N/A,,Clear,350,2013-03-07 01:35:00
7:55 PM,20.8,12.4,70,30.24,10.0,North,4.6,-,N/A,,Clear,10,2013-03-07 01:55:00
8:35 PM,18.0,11.1,75,30.24,10.0,Calm,Calm,-,N/A,,Scattered Clouds,0,2013-03-07 02:35:00
8:55 PM,14.4,9.1,80,30.24,10.0,Calm,Calm,-,N/A,,Mostly Cloudy,0,2013-03-07 02:55:00
9:15 PM,13.5,8.6,81,30.25,10.0,Calm,Calm,-,N/A,,Scattered Clouds,0,2013-03-07 03:15:00
9:35 PM,10.4,6.4,84,30.25,10.0,North,3.5,-,N/A,,Scattered Clouds,350,2013-03-07 03:35:00
9:55 PM,9.7,6.6,87,30.26,10.0,North,3.5,-,N/A,,Clear,10,2013-03-07 03:55:00
10:15 PM,9.7,7.0,89,30.26,10.0,North,4.6,-,N/A,,Clear,360,2013-03-07 04:15:00
10:35 PM,9.1,6.1,87,30.26,10.0,North,5.8,-,N/A,,Clear,10,2013-03-07 04:35:00
10:55 PM,8.8,5.9,88,30.26,10.0,North,5.8,-,N/A,,Clear,10,2013-03-07 04:55:00
11:15 PM,11.7,7.7,84,30.26,10.0,North,6.9,-,N/A,,Clear,10,2013-03-07 05:15:00
11:35 PM,11.5,8.1,86,30.26,10.0,NNE,8.1,-,N/A,,Clear,20,2013-03-07 05:35:00
11:55 PM,10.4,6.6,85,30.26,10.0,NNE,5.8,-,N/A,,Clear,20,2013-03-07 05:55:00